Simultaneous Nadir Overpasses (SNOs) Predictions

Prediction of SNOs between LANDSAT-8 and METOP-B Satellite Orbit:

Table of predicted SNOs for the next 14.0 days since TLE Epoch: 6/23/2017
Index Date (LANDSAT-8) Time (LANDSAT-8) Lat,Lon (LANDSAT-8) SZA (LANDSAT-8 ) Date (METOP-B) Time (METOP-B) Lat,Lon (METOP-B) SZA (METOP-B ) Distance(km) Time Diff (sec)
1 06/24/2017 19:09:29 81.18, -66.47 59.99 06/24/2017 19:09:23 81.19, -66.31 60.01 2.71 6
2 06/24/2017 19:58:55 -81.20, 101.44 119.98 06/24/2017 20:00:02 -81.20, 101.61 119.92 2.92 67
3 06/27/2017 13:54:42 -80.57,-175.74 121.22 06/27/2017 13:53:28 -80.78,-176.44 121.13 26.39 74
4 06/27/2017 14:43:45 81.18, -0.05 60.06 06/27/2017 14:43:44 81.18, -0.02 60.07 0.74 1
5 06/27/2017 15:33:11 -81.20, 167.89 119.89 06/27/2017 15:34:23 -81.20, 167.92 119.85 0.73 72
6 06/30/2017 09:28:35 -81.17,-101.37 119.82 06/30/2017 09:27:25 -81.17,-101.41 119.86 0.69 70
7 06/30/2017 10:18:01 81.18, 66.34 60.19 06/30/2017 10:18:05 81.18, 66.26 60.19 1.43 4
8 07/03/2017 05:02:50 -81.17, -34.98 119.64 07/03/2017 05:01:45 -81.16, -35.13 119.69 2.58 65
9 07/03/2017 05:52:15 81.19, 133.08 60.43 07/03/2017 05:52:24 81.19, 132.90 60.41 3.12 9
10 07/06/2017 00:37:06 -81.16, 31.39 119.41 07/06/2017 00:36:05 -81.17, 31.51 119.42 2.33 61




NCC Satellite Simultaneous Nadir Overpasses (SNOs) Prediction Service
